Etusivu
METAR-TAF:

METAR-TAF

Lentoasemat :

Prairie du Chien Municipal Airport

Prairie du Chien, Wisconsin, Yhdysvallat

Leveyspiiri: 43-01-19N, Pituuspiiri: 091-07-29W, korkeus merenpinnasta: 201 m

Tämänhetkinen sää

Tämä raportti tehtiin 23 minuuttia sitten, kello 17.35 UTC
Tuuli 12 kn pohjoisen/luoteesta
Lämpötila 10°C
Kosteus 50%
Ilmanpaine 1018 hPa
Näkyvyys: 16.1 km
Hajonneita pilviä 3800 ft:n korkeudessa
Pilvistä 4400 ft:n korkeudessa

METAR: KPDC 161735Z AUTO 33012KT 10SM BKN038 OVC044 10/00 A3007 RMK AO2 T00950003

Aika: 12:58 (17:58 UTC)


TAF: puuttuu

Säähavainnot ja -ennusteet yli 4000 lentoasemalta (METAR- ja TAF-raportit).

Käytössä olevat sääasemat on merkitty karttaan keltaisilla ja punaisilla pisteillä.

Aseta hiiri pisteen päälle nähdäksesi sääaseman nimen.

Klikkaa sitten nähdäksesi säähavainnot ja -ennusteet.

Kartan vaihtaminen: klikkaa mustalla rastilla varustettuja vihreitä pisteitä, niin voit zoomata sisään; viivalla varustettua vihreää pistettä, niin voit zoomata ulos tai vihreitä nuolia, niin pääset viereisille kartoille.


METAR-TAF: